Bendorf, Germany

10:20 PM CEST die 30o September, anno 2016 (GMT +0200)
Grenzhäuser Str | | Change Station

Elev 315 ft 50.42 °N, 7.58 °E | Updated 55 seconds ago

Clear
Serena
55.8 °F
Feels Like 55.8 °F
N
0.0
Ventus Variabilis Ventus from Inter Aquilonem et Eurum
Gusts 0.0 mph

Hodie
High -- | Low -- °F
--% Chance of Precip.
Yesterday
High -- | Low -- °F
Precip. -- in
Pressio 29.98 in
Visibilitas -9999.0 milia passuum
Clouds
Frigus in quo Ros apparet 52 °F
Umor 88%
Rainfall 0.00 in
Snow Depth Not available.
7:28 AM 7:09 PM
Waning Crescent, 0% visible
METAR EDFH 301950Z 26002KT CAVOK 12/10 Q1015
Pressio 29.98 in
Visibilitas -9999.0 milia passuum
Clouds
Frigus in quo Ros apparet 52 °F
Umor 88%
Rainfall 0.00 in
Snow Depth Not available.
7:28 AM 7:09 PM
Waning Crescent, 0% visible
METAR EDFH 301950Z 26002KT CAVOK 12/10 Q1015

10-Day Weather Forecast

×

Almanac

Astronomy

Sep. 30, 2016 Rise Set
Actual Time
Civil Twilight
Nautical Twilight
Astronomical Twilight
Moon
Length Of Visible Light
Length of Day
Tomorrow will be .
, % of the Moon is Illuminated

Today's Extremes

Country Highs Country Lows

Community

WunderPhotos

Upload Photos

1,942,762 photos uploaded!

WunderBlog® & News

Nearby

Air Quality

  Air Quality AQ Index Pollutant
Not available.

Snow Depth

Station Depth Elevation

Earthquake Activity

City Distance Mag. Time & Date
Minimum magnitude displayed is 2.5.

Coastal Water Temperatures

Locus Calor

Stations

Nearby Weather Stations

Station Location Temp Frigus Venti Frigus in quo Ros apparet Umor Ventus Precip. Elev Renovata Type